Location: Unspecified
(0.0000°N, 0.0000°E)
Time: 07:22:09
(UTC+00:00)

CZ-8A R/B - Visible Passes

Search period start: 08 March 2026 00:00
Search period end: 18 March 2026 00:00
Orbit: 781 x 914 km, 50.0° (Epoch: 8 March)

Date Brightness Start Highest point End Pass type
(mag) Time Alt. Az. Time Alt. Az. Time Alt. Az.
8 Mar ? 05:40:33 10° NW 05:46:26 89° NE 05:52:07 10° SE visible
8 Mar ? 18:26:57 10° WSW 18:31:51 29° NW 18:36:54 10° N visible
9 Mar ? 03:43:57 10° NE 03:45:14 11° NE 03:46:30 10° ENE visible
9 Mar ? 05:26:00 10° NW 05:31:54 81° SW 05:37:35 10° SE visible
10 Mar ? 03:29:39 12° NE 03:30:44 12° NE 03:33:04 10° ENE visible
10 Mar ? 05:11:36 11° NW 05:17:22 72° SW 05:23:03 10° SSE visible
11 Mar ? 03:17:04 14° ENE 03:17:04 14° ENE 03:19:14 10° E visible
11 Mar ? 04:59:01 22° NW 05:02:50 64° SW 05:08:29 10° SSE visible
12 Mar ? 03:04:27 12° E 03:04:27 12° E 03:05:14 10° E visible
12 Mar ? 04:46:24 39° WNW 04:48:18 57° SW 04:53:55 10° SSE visible
13 Mar ? 04:33:42 50° SW 04:33:46 50° SW 04:39:19 10° SSE visible
14 Mar ? 04:20:55 35° SSW 04:20:55 35° SSW 04:24:43 10° SSE visible
15 Mar ? 04:07:59 21° S 04:07:59 21° S 04:10:05 10° SSE visible
16 Mar ? 03:54:57 12° S 03:54:57 12° S 03:55:25 10° SSE visible
